Flag for Canada Weather past 2 weeks in Nanaimo, British Columbia, Canada

Now
66 °F

Mild.


Feels Like: 66 °F
Forecast: 59 / 67 °F
Wind: 7 mph from South

Location: Entrance Island

Current Time: Aug 27, 2015 at 8:08:19 PM

Latest Report: Aug 27, 2015 at 7:00 PM


Visibility: N/A

Pressure: 29.93 "Hg

Humidity: 85%

Dew point: 62 °F

Location of NanaimoLocation

Historic Weather in Nanaimo — Graph

°F

Nanaimo temperature yesterday

Maximum temperature yesterday: 70 °F (at 3:00 PM)
Minimum temperature yesterday: 60 °F (at 5:00 AM)
Average temperature yesterday: 65 °F

Past Weeks' High & Low Weather Summary

 TemperatureHumidityPressure
High76 °F (Aug 12, 8:00 PM)98% (Aug 16, 5:00 AM)30.27 "Hg (Aug 16, 5:00 AM)
Low58 °F (Aug 16, 2:00 AM)49% (Aug 12, 8:00 PM)29.79 "Hg (Aug 19, 7:00 PM)
Average65 °F77%30.01 "Hg
* Reported Aug 12 7:00 PM — Aug 27 7:00 PM, Nanaimo, Weather by CustomWeather, © 2015

Note: Actual official high and low records may vary slightly from our data, if they occured in-between our weather recording intervals... More about our weather records

Advertising

Nanaimo weather history for previous 24 hours

 ConditionsComfort  
Time TempWeatherWind HumidityBarometerVisibility
7:00 PM
Thu, Aug 27
66 °FMild.7 mph85%29.93 "HgN/A
6:00 PM67 °FMild.12 mph78%29.95 "HgN/A
5:00 PM67 °FMild.13 mph80%29.97 "HgN/A
4:00 PM66 °FMild.10 mph83%29.99 "HgN/A
3:00 PM66 °FMild.10 mph79%30.01 "HgN/A
2:00 PM67 °FMild.7 mph72%30.04 "HgN/A
1:00 PM66 °FMild.7 mph76%30.05 "HgN/A
12:00 PM66 °FMild.6 mph72%30.06 "HgN/A
11:00 AM66 °FMild.6 mph70%30.06 "HgN/A
10:00 AM65 °FMild.5 mph78%30.06 "HgN/A
9:00 AM64 °FMild.2 mph85%30.06 "HgN/A
8:00 AM63 °FMild.1 mph87%30.06 "HgN/A
7:00 AM62 °FMild.1 mph87%30.04 "HgN/A
6:00 AM62 °FCool.2 mph83%30.03 "HgN/A
5:00 AM62 °FCool.2 mph83%30.02 "HgN/A
4:00 AM62 °FMild.3 mph81%30.01 "HgN/A
3:00 AM63 °FMild.7 mph79%30.00 "HgN/A
2:00 AM63 °FMild.2 mph77%29.99 "HgN/A
1:00 AM62 °FCool.6 mph80%29.99 "HgN/A
12:00 AM64 °FMild.6 mph69%29.98 "HgN/A
11:00 PM
Wed, Aug 26
65 °FMild.3 mph59%29.98 "HgN/A
10:00 PM65 °FMild.3 mph66%29.98 "HgN/A
9:00 PM65 °FMild.5 mph73%29.97 "HgN/A
8:00 PM66 °FMild.5 mph85%29.96 "HgN/A
Weather by CustomWeather, © 2015

See weather overviewHow to use our weather pages